Flag for Canada Weather past 2 weeks in Haldimand, Ontario, Canada

Now
55 °F

Passing clouds.


Feels Like: 55 °F
Forecast: 52 / 71 °F
Wind: 5 mph from West

Location: Hamilton Airport

Current Time: Aug 28, 2014 at 1:13:29 AM

Latest Report: Aug 28, 2014 at 12:00 AM


Visibility: 15 mi

Pressure: 30.09 "Hg

Humidity: 82%

Dew point: 50 °F

Location of HaldimandLocation

Historic Weather in Haldimand — Graph

°F

Haldimand temperature yesterday

Maximum temperature yesterday: 75 °F (at 3:00 PM)
Minimum temperature yesterday: 57 °F (at 11:00 PM)
Average temperature yesterday: 68 °F

Past Weeks' High & Low Weather Summary

 TemperatureHumidityPressure
High84 °F (Aug 26, 2:00 PM)100% (Aug 17, 3:00 AM)30.18 "Hg (Aug 17, 3:00 AM)
Low50 °F (Aug 15, 12:00 AM)43% (Aug 15, 4:00 PM)29.72 "Hg (Aug 13, 12:00 AM)
Average65 °F81%29.97 "Hg
* Reported Midnight between Aug 12 and Aug 13 — Midnight between Aug 27 and Aug 28, Haldimand, Weather by CustomWeather, © 2014

Note: Actual official high and low records may vary slightly from our data, if they occured in-between our weather recording intervals... More about our weather records

Advertising

Haldimand weather history for previous 24 hours

 ConditionsComfort  
Time TempWeatherWind HumidityBarometerVisibility
12:00 AM
Aug 28
55 °FPassing clouds.5 mph82%30.09 "Hg15 mi
11:00 PM
Aug 27
57 °FPassing clouds.3 mph77%30.09 "Hg15 mi
10:00 PM59 °FPassing clouds.8 mph72%30.08 "Hg15 mi
9:00 PM63 °FPassing clouds.16 mph68%30.06 "Hg15 mi
8:00 PM66 °FPassing clouds.10 mph64%30.05 "Hg12 mi
7:00 PM70 °FPassing clouds.12 mph57%30.03 "Hg8 mi
6:00 PM72 °FPassing clouds.13 mph57%30.04 "Hg8 mi
5:00 PM73 °FScattered clouds.13 mph57%30.03 "Hg10 mi
4:00 PM73 °FScattered clouds.13 mph57%30.03 "Hg10 mi
3:00 PM75 °FPartly sunny.9 mph50%30.03 "Hg8 mi
1:00 PM73 °FPassing clouds.6 mph53%30.05 "Hg15 mi
12:00 PM72 °FPassing clouds.7 mph53%30.06 "Hg15 mi
10:00 AM68 °FPassing clouds.7 mph64%30.07 "Hg15 mi
9:00 AM66 °FPassing clouds.7 mph73%30.07 "Hg15 mi
8:00 AM64 °FPassing clouds.7 mph83%30.06 "Hg15 mi
7:00 AM63 °FPassing clouds.5 mph88%30.05 "Hg15 mi
6:00 AM64 °FPassing clouds.5 mph88%30.05 "Hg15 mi
5:00 AM66 °FPassing clouds.5 mph83%30.04 "Hg15 mi
4:00 AM68 °FPassing clouds.13 mph78%30.03 "Hg8 mi
3:00 AM72 °FMostly cloudy.9 mph94%30.01 "Hg9 mi
2:00 AM72 °FMostly cloudy.5 mph94%30.01 "Hg11 mi
1:00 AM72 °FPartly cloudy.6 mph94%30.00 "Hg15 mi
Weather by CustomWeather, © 2014

See weather overviewHow to use our weather pages